CAPE
3 4 2 0 4 6 11 31 38 26 3 7 23 14 8 0 0 0 0 0 0 0 0 0 0 0 0 0 0 0 0 0 0 0 0 0 0 10
1 2 0 1 2 5 12 16 21 36 21 12 2 5 7 14 5 2 0 0 0 0 0 0 0 0 0 0 0 0 0 0 0 0 0 0 0 0
3 5 3 0 0 1 5 12 18 46 16 10 27 9 9 0 0 12 12 0 0 0 0 0 0 0 0 0 0 0 0 0 0 0 0 0 0 0
2 5 8 2 2 6 3 6 27 10 26 22 25 27 18 0 3 9 23 14 9 0 0 0 0 0 0 0 0 0 0 0 0 0 0 0 0 0
3 5 12 15 12 12 0 7 22 38 31 34 15 18 23 6 0 9 1 0 22 0 0 0 0 0 0 0 0 0 0 1 1 1 1 1 1 1
4 6 11 21 21 22 24 23 38 14 10 15 27 27 24 15 7 20 2 0 1 0 11 0 0 0 0 0 0 0 0 0 1 1 1 1 1 1
2 4 6 15 25 14 30 25 34 13 20 17 24 26 21 22 30 22 6 6 0 0 0 2 0 0 0 0 0 0 0 1 1 0 0 1 1 1
8 0 0 11 15 4 3 7 2 18 22 23 21 23 10 16 25 15 13 13 7 4 0 0 1 11 0 0 0 0 1 0 1 0 1 1 1 1
4 9 10 13 10 14 7 4 7 5 2 16 20 17 13 17 23 9 5 11 12 13 7 1 0 0 0 0 1 1 1 1 1 1 1 1 1 1
6 8 9 13 13 17 14 9 9 14 13 15 18 19 18 18 14 14 10 12 6 4 2 0 0 0 0 0 0 1 1 1 1 1 1 1 1 1
7 8 11 11 10 13 8 8 3 2 0 0 1 0 0 0 2 3 6 11 4 1 0 0 0 0 1 0 0 0 1 0 1 0 1 1 1 1
3 4 5 8 8 4 5 7 2 1 0 0 1 2 1 2 0 3 9 8 5 5 0 0 1 1 0 1 0 0 0 0 1 1 1 1 1 0
3 2 1 7 4 9 9 5 2 0 0 0 0 0 0 0 0 1 5 9 5 8 0 1 1 1 1 0 1 0 0 0 0 0 0 0 0 0
2 1 1 9 6 6 2 1 0 0 1 1 0 0 0 0 0 0 0 1 1 1 0 0 1 1 1 1 0 0 0 1 0 1 1 0 0 1
0 0 2 2 0 0 0 1 0 1 1 0 2 1 1 1 0 0 0 0 0 0 0 0 0 0 1 1 1 1 0 0 1 0 0 0 1 1
0 0 0 0 0 0 0 0 1 3 0 0 1 2 1 1 1 0 0 0 1 0 0 0 0 0 1 1 1 0 1 1 0 0 1 1 1 0
0 0 0 1 2 1 0 0 1 1 4 1 0 0 2 0 0 1 0 0 0 0 0 0 0 0 0 0 0 0 0 0 0 0 0 1 0 1
0 1 2 3 6 5 4 2 0 0 2 6 1 3 2 1 0 0 0 0 0 0 0 0 0 0 0 0 2 0 0 0 0 0 0 0 0 0
5 3 0 3 6 6 4 3 3 2 3 2 3 1 0 0 0 0 0 0 0 0 0 0 0 0 0 0 0 1 0 0 0 0 0 0 0 0
3 8 7 6 8 8 7 6 1 1 2 2 2 2 0 1 0 1 1 0 1 1 1 0 0 0 0 0 0 0 0 0 0 0 0 0 0 0
6 5 6 5 5 5 5 4 3 3 3 3 2 2 2 1 0 1 0 0 1 1 2 1 1 0 0 0 0 0 0 0 0 0 0 0 0 0
3 4 4 4 2 3 4 1 1 1 2 3 2 2 3 3 2 0 0 2 0 1 1 0 0 0 0 0 1 0 0 0 0 0 0 0 0 0
1 2 1 1 1 2 3 2 1 1 2 2 1 2 2 2 3 2 1 1 0 0 0 0 0 0 0 0 0 0 0 0 0 0 0 0 0 0
CIN
-1 -3 -1 -0 -1 -1 -0 -0 -0 -0 -1 -0 -1 -7 -17 -0 -0 -0 -0 -0 -0 -0 -0 -0 -0 -0 -0 -0 -0 -0 -0 -0 -0 -0 -0 -0 -0 -287
-2 -3 -0 -3 -2 -2 -1 -0 -0 -0 -0 -1 -0 -1 -4 -0 -1 -2 -1 -0 -0 -0 -0 -0 -0 -0 -0 -0 -0 -0 -0 -0 -0 -0 -0 -0 -0 -0
-1 -0 -0 -0 -0 -2 -1 -1 -0 -0 -0 -0 -1 -0 -3 -0 -0 -1 -1 -0 -0 -0 -0 -0 -0 -0 -0 -0 -0 -0 -0 -0 -0 -0 -0 -0 -0 -0
-1 -0 -0 -0 -0 -0 -1 -1 -0 -1 -0 -0 -0 -0 -1 -0 -2 -1 -0 -1 -1 -0 -0 -0 -0 -0 -0 -0 -0 -0 -0 -0 -0 -0 -0 -0 -0 -0
-1 -0 -0 -0 -0 -1 -0 -0 -0 -0 -0 -0 -0 -0 -1 -4 -0 -3 -2 -0 -0 -0 -0 -0 -0 -0 -0 -0 -0 -0 -0 -0 -0 -0 -0 -0 -0 -0
-1 -0 -0 -0 -0 -0 -0 -0 -0 -0 -0 -0 -0 -0 -1 -1 -2 -1 -1 -2 -0 -0 -4 -0 -0 -0 -0 -0 -0 -0 -0 -0 -0 -0 -0 -0 -0 -0
-0 -1 -0 -0 -0 -1 -0 -0 -0 -0 -0 -0 -0 -0 -0 -0 -0 -0 -0 -0 -0 -0 -0 -0 -0 -0 -0 -0 -0 -0 -0 -0 -0 -0 -0 -0 -0 -0
-0 -0 -0 -0 -0 -0 -0 -2 -7 -0 -0 -0 -0 -0 -0 -0 -0 -0 -0 -0 -0 -5 -0 -0 -0 -0 -0 -0 -0 -0 -0 -0 -0 -0 -0 -0 -0 -0
-0 -0 -0 -0 -0 -0 -0 -0 -0 -1 -6 -2 -0 -0 -0 -0 -0 -0 -0 -0 -0 -0 -0 -0 -0 -0 -0 -0 -0 -0 -0 -0 -0 -0 -0 -0 -0 -0
-0 -0 -0 -0 -0 -0 -0 -0 -0 -0 -0 -0 -0 -0 -0 -0 -0 -0 -0 -0 -0 -0 -0 -0 -0 -0 -0 -0 -0 -0 -0 -0 -0 -0 -0 -0 -0 -0
-0 -0 -0 -0 -0 -0 -0 -0 -0 -0 -0 -0 -1 -0 -0 -0 -0 -0 -0 -0 -0 -1 -0 -0 -0 -0 -0 -0 -0 -0 -0 -0 -0 -0 -0 -0 -0 -0
-0 -0 -1 -0 -0 -0 -0 -0 -0 -0 -0 -1 -0 -0 -0 -0 -0 -0 -0 -0 -0 -0 -0 -0 -0 -0 -0 -0 -0 -0 -0 -0 -0 -0 -0 -0 -0 -0
-0 -0 -1 -0 -0 -0 -0 -0 -0 -0 -0 -0 -0 -0 -0 -0 -0 -0 -0 -0 -0 -0 -0 -0 -0 -0 -0 -0 -0 -0 -0 -0 -0 -0 -0 -0 -0 -0
-0 -0 -1 -0 -0 -0 -0 -1 -0 -0 -0 -0 -0 -0 -0 -0 -0 -0 -0 -0 -0 -0 -0 -0 -0 -0 -0 -0 -0 -0 -0 -0 -0 -0 -0 -0 -0 -0
-0 -0 -0 -0 -0 -0 -0 -3 -2 -1 -0 -0 -0 -0 -0 -0 -0 -0 -0 -0 -0 -0 -0 -0 -0 -0 -0 -0 -0 -0 -0 -0 -0 -0 -0 -0 -0 -0
-0 -0 -0 -0 -0 -0 -0 -0 -1 -1 -0 -0 -0 -0 -0 -0 -0 -0 -0 -0 -0 -0 -0 -0 -0 -0 -0 -0 -0 -0 -0 -0 -0 -0 -0 -0 -0 -0
-1 -1 -0 -0 -0 -0 -0 -0 -1 -1 -0 -0 -0 -0 -0 -0 -0 -0 -0 -0 -0 -0 -0 -0 -0 -0 -0 -0 -0 -0 -0 -0 -0 -0 -0 -0 -0 -0
-0 -0 -0 -0 -0 -0 -0 -0 -0 -0 -0 -0 -0 -0 -0 -0 -0 -0 -0 -0 -0 -0 -0 -0 -0 -0 -0 -0 -0 -0 -0 -0 -0 -0 -0 -0 -0 -0
-0 -0 -0 -0 -0 -0 -0 -0 -0 -0 -0 -0 -0 -0 -0 -0 -0 -0 -0 -0 -0 -0 -0 -0 -0 -0 -0 -0 -0 -0 -0 -0 -0 -0 -0 -0 -0 -0
-0 -0 -0 -0 -0 -0 -0 -0 -1 -1 -0 -0 -0 -0 -0 -0 -0 -0 -0 -0 -0 -0 -0 -0 -0 -0 -0 -0 -0 -0 -0 -0 -0 -0 -0 -0 -0 -0
-0 -0 -0 -0 -0 -0 -0 -0 -0 -0 -0 -0 -0 -0 -0 -0 -0 -0 -0 -0 -0 -0 -0 -0 -0 -0 -0 -0 -0 -0 -0 -0 -0 -0 -0 -0 -0 -0
-0 -0 -0 -0 -0 -0 -0 -0 -0 -1 -0 -0 -0 -0 -0 -0 -0 -0 -0 -0 -0 -0 -0 -0 -0 -0 -0 -0 -0 -0 -0 -0 -0 -0 -0 -0 -0 -0
-0 -0 -0 -0 -0 -0 -0 -0 -0 -0 -0 -0 -0 -0 -0 -0 -0 -0 -0 -0 -0 -0 -0 -0 -0 -0 -0 -0 -0 -0 -0 -0 -0 -0 -0 -0 -0 -0
Wind_Speed
10 12 10 9 8 9 9 10 12 15 13 14 12 9 7 10 13 14 12 13 16 19 21 22 23 24 24 23 23 24 24 23 21 22 20 20 22 22
10 13 13 10 11 9 9 10 11 14 13 11 12 17 13 12 16 18 18 16 17 19 21 23 23 23 24 24 24 24 23 21 21 17 18 20 20 22
11 12 16 17 11 10 10 11 12 11 15 13 12 17 11 16 16 15 14 15 11 14 20 23 22 23 23 23 23 23 22 23 22 22 21 20 20 20
14 14 15 12 15 13 10 14 13 14 14 22 14 12 13 16 18 17 14 13 14 17 17 22 22 23 23 24 22 24 27 26 21 21 19 19 17 18
14 15 15 15 13 11 15 13 12 11 13 15 16 12 11 11 14 12 12 15 12 22 20 20 20 22 20 20 23 25 27 25 27 24 20 18 17 17
14 14 15 15 15 16 14 14 12 11 13 14 15 14 11 11 12 11 10 10 12 14 15 16 12 19 20 23 24 26 26 28 24 21 19 18 19 19
16 15 14 19 25 19 12 15 14 12 12 13 14 13 13 12 11 11 10 11 14 12 11 9 6 6 8 16 17 24 25 23 21 20 21 20 19 16
15 18 18 20 18 25 23 19 15 14 16 13 14 14 18 14 13 11 13 12 12 4 10 15 10 11 8 7 11 15 20 24 21 19 18 14 17 14
17 16 16 13 19 17 21 23 20 18 18 16 18 15 17 15 16 16 15 14 14 15 13 12 11 12 10 7 12 14 19 16 16 17 15 16 13 12
16 17 17 18 17 20 20 18 16 16 15 13 17 18 17 16 16 15 17 18 16 15 11 8 4 5 5 4 12 10 6 8 11 10 7 10 12 11
15 15 17 17 25 30 20 19 18 17 15 22 25 27 25 25 23 14 11 11 11 11 3 3 3 4 4 2 6 11 5 5 6 7 9 8 7 7
15 15 20 20 28 29 20 17 16 17 17 17 16 18 19 17 22 14 11 12 9 8 4 3 3 2 6 3 2 5 6 12 10 11 8 9 10 4
12 13 12 26 29 28 26 14 19 20 17 13 12 12 13 11 10 9 10 9 9 10 5 2 2 2 2 4 2 2 2 4 3 2 9 8 8 8
13 13 14 28 28 26 20 27 26 17 12 12 12 12 12 11 10 8 9 9 9 13 9 4 3 1 2 2 2 4 2 1 1 2 3 5 6 7
12 19 25 25 25 19 25 26 18 12 13 14 13 12 13 13 12 9 8 9 7 4 1 2 2 3 1 1 2 3 4 5 5 6 5 2 2 3
16 13 14 17 16 15 15 15 13 13 12 12 12 12 12 12 9 8 3 4 3 4 6 7 6 4 3 2 2 3 3 3 3 2 1 2 5 2
15 11 12 14 14 15 15 15 14 14 14 15 13 14 11 11 10 10 7 4 2 3 3 2 4 5 5 4 3 3 3 3 4 3 4 3 3 3
10 10 12 13 14 14 15 15 14 17 14 14 12 12 12 12 11 10 8 6 6 5 4 3 2 1 2 3 12 4 2 3 2 4 3 4 4 4
10 11 13 13 13 14 14 13 14 14 16 14 13 13 12 11 13 10 9 8 7 5 4 4 4 3 3 3 3 14 4 4 3 2 3 3 1 3
11 12 12 13 13 13 13 13 14 14 14 14 14 13 12 12 11 11 10 10 9 6 6 6 5 5 4 3 2 3 13 3 2 2 2 1 2 2
10 11 11 12 12 13 13 13 15 14 14 14 14 14 13 11 12 11 11 14 11 7 8 8 7 6 2 2 3 3 3 13 10 2 2 2 3 3
10 11 11 11 12 13 13 13 14 15 15 14 14 13 13 12 11 11 10 10 9 8 7 7 8 7 6 5 5 4 4 4 8 12 13 3 1 1
9 10 10 11 11 12 13 13 13 13 14 14 14 13 13 13 12 11 11 9 8 8 7 7 7 6 7 6 6 6 8 8 6 8 9 14 11 13
Wind_Direction
336 333 317 323 314 306 292 290 297 299 298 302 307 304 296 304 288 286 284 282 278 273 268 263 254 248 243 238 232 225 221 222 222 222 221 224 230 233
330 320 321 316 310 305 304 293 287 282 293 312 300 301 302 297 289 269 264 256 256 260 263 260 257 253 246 239 235 231 226 220 220 217 215 218 225 229
317 320 317 315 309 310 304 301 300 301 301 300 292 289 302 300 290 275 272 265 262 238 251 252 248 248 245 240 234 231 224 222 210 210 213 218 222 228
321 316 312 315 311 306 309 310 307 300 295 290 294 301 301 300 302 313 288 271 264 258 244 252 250 244 240 239 233 224 224 220 210 205 207 215 217 221
320 316 310 309 305 305 308 303 295 301 310 298 297 293 295 299 302 300 306 326 284 263 250 249 259 266 260 251 242 234 232 217 213 203 194 202 209 216
318 317 313 310 311 308 303 301 301 310 308 301 303 299 291 298 293 298 302 316 310 300 280 256 266 260 258 244 239 238 225 218 209 201 205 213 218 208
325 319 316 315 309 299 298 302 300 308 301 298 297 300 311 319 308 315 316 315 308 294 294 286 271 260 272 265 254 243 226 214 199 198 209 210 222 215
324 327 327 320 319 314 304 293 289 296 295 297 297 298 301 300 300 310 312 313 311 285 337 301 294 278 278 274 244 220 203 196 191 207 193 189 212 206
329 324 321 321 319 316 315 308 299 283 272 283 288 289 296 302 302 302 304 300 292 297 304 296 297 269 263 260 258 216 214 191 183 189 185 184 191 204
329 323 321 323 323 322 316 309 304 294 288 284 283 284 286 294 292 292 293 291 287 282 282 276 308 289 335 350 10 326 238 205 189 184 157 162 174 190
332 329 330 324 325 327 322 314 308 300 291 284 280 281 277 275 274 281 273 271 282 287 268 267 274 271 267 339 345 360 36 111 132 123 129 132 142 143
333 331 329 329 330 331 327 324 317 316 308 301 296 289 284 275 264 250 259 260 269 283 256 293 312 356 316 309 21 356 355 36 49 94 89 110 121 115
332 332 330 335 339 335 335 328 321 317 315 306 300 295 292 283 272 261 247 251 266 267 280 296 274 313 226 306 327 346 20 332 40 10 53 89 127 121
331 326 324 333 336 336 338 334 333 329 331 326 321 314 307 297 287 273 261 251 249 260 291 307 274 254 295 306 279 339 334 105 230 2 53 52 51 81
331 324 328 333 335 337 339 338 340 341 338 339 331 328 324 318 299 292 278 262 259 261 283 345 284 299 249 256 305 343 355 347 7 8 27 48 81 45
338 331 331 332 337 336 340 345 343 343 339 335 333 330 328 337 339 344 319 330 333 344 28 15 353 1 338 3 9 337 356 328 8 23 250 326 46 29
343 344 346 349 346 345 345 346 344 344 344 345 343 343 340 338 338 338 338 325 340 332 347 303 11 42 48 9 8 10 346 341 347 354 17 21 12 338
351 354 351 348 347 343 344 342 344 344 342 337 338 340 341 341 338 338 340 342 341 345 345 340 317 5 194 76 44 360 15 357 350 1 9 25 21 351
2 356 351 346 344 342 342 342 340 341 337 339 339 342 342 342 345 347 348 346 348 351 353 345 350 357 20 28 355 41 4 341 345 40 33 31 8 4
2 349 345 346 341 339 340 341 340 341 344 341 343 345 348 346 347 353 352 353 354 354 3 5 8 357 5 10 47 1 4 331 345 20 29 38 110 80
350 347 343 345 339 338 339 339 340 344 343 343 345 347 348 347 351 353 355 358 357 357 7 4 351 325 331 1 42 360 358 23 33 23 16 39 17 13
343 341 340 341 339 339 337 340 339 345 345 346 346 346 347 348 349 350 354 358 1 1 3 358 0 9 35 47 41 15 3 5 18 39 34 22 94 127
341 339 338 338 338 338 338 339 340 340 341 343 344 345 347 349 348 348 351 354 359 6 5 7 10 17 30 32 30 26 21 24 19 27 23 26 66 93